time, Switch, Flow(0), Analog(2)
yyyy/mm/dd HH:MM:SS.fff, True=FILTERED|False=TOTAL, L/min, V
2023/07/01 07:00:02.503, True, 4.638, 0.128786
2023/07/01 07:00:02.999, True, 4.380, 0.131075
2023/07/01 07:00:03.503, True, 4.650, 0.129168
2023/07/01 07:00:04.007, True, 3.979, 0.131762
2023/07/01 07:00:04.504, True, 2.360, 0.128481
2023/07/01 07:00:05.007, True, 1.657, 0.129931
2023/07/01 07:00:05.512, True, 1.325, 0.129778
2023/07/01 07:00:06.008, True, 1.011, 0.129778
2023/07/01 07:00:06.512, True, 0.994, 0.127413
2023/07/01 07:00:07.016, True, 1.327, 0.127184
2023/07/01 07:00:07.520, True, 0.995, 0.128481
2023/07/01 07:00:08.016, True, 1.346, 0.128710
2023/07/01 07:00:08.519, True, 0.995, 0.129702
2023/07/01 07:00:09.015, True, 1.349, 0.130465
2023/07/01 07:00:09.519, True, 0.995, 0.129625
2023/07/01 07:00:10.024, True, 0.994, 0.129625
2023/07/01 07:00:10.528, True, 1.326, 0.130007
2023/07/01 07:00:11.024, True, 1.010, 0.127184
2023/07/01 07:00:11.528, True, 0.996, 0.129091
2023/07/01 07:00:12.032, True, 0.994, 0.127947
2023/07/01 07:00:12.528, True, 1.348, 0.129778
2023/07/01 07:00:13.032, True, 0.995, 0.128023
2023/07/01 07:00:13.536, True, 0.996, 0.130007
2023/07/01 07:00:14.031, True, 1.011, 0.130541
2023/07/01 07:00:14.536, True, 1.326, 0.128252
2023/07/01 07:00:15.040, True, 0.994, 0.128939
2023/07/01 07:00:15.536, True, 1.347, 0.128634
2023/07/01 07:00:16.040, True, 0.994, 0.129778
2023/07/01 07:00:16.543, True, 0.996, 0.127794
2023/07/01 07:00:17.039, True, 1.010, 0.129091
2023/07/01 07:00:17.544, True, 1.328, 0.128710
2023/07/01 07:00:18.047, True, 0.995, 0.127031
2023/07/01 07:00:18.543, True, 1.349, 0.128634
2023/07/01 07:00:19.048, True, 0.993, 0.128786
2023/07/01 07:00:19.551, True, 1.326, 0.128481
2023/07/01 07:00:20.048, True, 1.013, 0.128099
2023/07/01 07:00:20.552, True, 1.325, 0.129320
2023/07/01 07:00:21.055, True, 0.991, 0.128710
2023/07/01 07:00:21.559, True, 0.999, 0.129931
2023/07/01 07:00:22.055, True, 1.347, 0.127871
2023/07/01 07:00:22.559, True, 0.994, 0.129473
2023/07/01 07:00:23.063, True, 0.994, 0.129549
2023/07/01 07:00:23.560, True, 1.350, 0.128023
2023/07/01 07:00:24.063, True, 1.324, 0.127947
2023/07/01 07:00:24.567, True, 0.996, 0.128252
2023/07/01 07:00:25.071, True, 1.325, 0.129931
2023/07/01 07:00:25.568, True, 1.011, 0.129931
2023/07/01 07:00:26.072, True, 0.995, 0.128405
2023/07/01 07:00:26.576, True, 1.326, 0.129168
2023/07/01 07:00:27.071, True, 1.012, 0.129473
2023/07/01 07:00:27.576, True, 0.995, 0.128634
2023/07/01 07:00:28.080, True, 1.324, 0.128786
2023/07/01 07:00:28.575, True, 1.011, 0.131228
2023/07/01 07:00:29.080, True, 0.995, 0.128862
2023/07/01 07:00:29.583, True, 1.328, 0.131609
2023/07/01 07:00:30.079, True, 1.347, 0.129473
2023/07/01 07:00:30.584, True, 0.995, 0.129168
2023/07/01 07:00:31.087, True, 1.328, 0.128862
2023/07/01 07:00:31.592, True, 0.993, 0.128481
2023/07/01 07:00:32.087, True, 1.348, 0.130694
2023/07/01 07:00:32.592, True, 0.997, 0.129473
2023/07/01 07:00:33.096, True, 1.325, 0.127718
2023/07/01 07:00:33.600, True, 0.995, 0.128710
2023/07/01 07:00:34.096, True, 1.347, 0.130541
2023/07/01 07:00:34.599, True, 0.995, 0.128862
2023/07/01 07:00:35.103, True, 1.327, 0.129549
2023/07/01 07:00:35.600, True, 1.010, 0.129625
2023/07/01 07:00:36.104, True, 1.327, 0.131456
2023/07/01 07:00:36.608, True, 0.995, 0.129931
2023/07/01 07:00:37.104, True, 1.350, 0.127565
2023/07/01 07:00:37.607, True, 0.994, 0.129397
2023/07/01 07:00:38.112, True, 1.327, 0.130465
2023/07/01 07:00:38.616, True, 0.995, 0.127794
2023/07/01 07:00:39.112, True, 1.346, 0.129473
2023/07/01 07:00:39.616, True, 0.995, 0.129244
2023/07/01 07:00:40.119, True, 1.328, 0.131914
2023/07/01 07:00:40.623, True, 0.994, 0.126497
2023/07/01 07:00:41.119, True, 1.349, 0.130922
2023/07/01 07:00:41.624, True, 1.326, 0.129168
2023/07/01 07:00:42.120, True, 1.010, 0.129244
2023/07/01 07:00:42.624, True, 1.326, 0.130465
2023/07/01 07:00:43.128, True, 0.995, 0.127947
2023/07/01 07:00:43.631, True, 1.328, 0.129625
2023/07/01 07:00:44.127, True, 1.010, 0.129168
2023/07/01 07:00:44.631, True, 1.328, 0.129091
2023/07/01 07:00:45.136, True, 0.993, 0.129320
2023/07/01 07:00:45.631, True, 1.012, 0.131685
2023/07/01 07:00:46.136, True, 0.994, 0.127489
2023/07/01 07:00:46.640, True, 1.326, 0.127260
2023/07/01 07:00:47.136, True, 1.350, 0.129091
2023/07/01 07:00:47.639, True, 0.993, 0.127413
2023/07/01 07:00:48.144, True, 0.995, 0.128023
2023/07/01 07:00:48.640, True, 1.011, 0.127642
2023/07/01 07:00:49.143, True, 0.995, 0.128481
2023/07/01 07:00:49.647, True, 1.328, 0.127260
2023/07/01 07:00:50.144, True, 1.012, 0.128939
2023/07/01 07:00:50.647, True, 1.326, 0.130770
2023/07/01 07:00:51.151, True, 0.993, 0.128481
2023/07/01 07:00:51.647, True, 1.349, 0.129320
2023/07/01 07:00:52.152, True, 0.994, 0.130465
2023/07/01 07:00:52.655, True, 0.994, 0.131838
2023/07/01 07:00:53.160, True, 1.326, 0.129168
2023/07/01 07:00:53.656, True, 1.011, 0.129397
2023/07/01 07:00:54.159, True, 1.326, 0.132448
2023/07/01 07:00:54.663, True, 1.327, 0.130541
2023/07/01 07:00:55.168, True, 0.994, 0.132143
2023/07/01 07:00:55.664, True, 1.350, 0.130007
2023/07/01 07:00:56.167, True, 0.995, 0.130846
2023/07/01 07:00:56.672, True, 1.326, 0.130312
2023/07/01 07:00:57.168, True, 1.010, 0.132982
2023/07/01 07:00:57.672, True, 1.328, 0.131762
2023/07/01 07:00:58.175, True, 1.327, 0.131838
2023/07/01 07:00:58.680, True, 0.995, 0.131838
2023/07/01 07:00:59.176, True, 1.347, 0.127947
2023/07/01 07:00:59.679, True, 0.995, 0.132448
2023/07/01 07:01:00.184, True, 1.327, 0.130770
2023/07/01 07:01:00.679, True, 1.349, 0.130617
2023/07/01 07:01:01.184, True, 0.993, 0.131304
2023/07/01 07:01:01.688, True, 1.327, 0.131380
2023/07/01 07:01:02.183, True, 1.012, 0.132830
2023/07/01 07:01:02.687, True, 0.994, 0.132677
2023/07/01 07:01:03.192, True, 0.995, 0.131991
2023/07/01 07:01:03.688, True, 1.012, 0.133211
2023/07/01 07:01:04.192, True, 1.326, 0.133211
2023/07/01 07:01:04.688, True, 1.010, 0.132448
2023/07/01 07:01:05.192, True, 0.997, 0.132372
2023/07/01 07:01:05.695, True, 0.993, 0.131228
2023/07/01 07:01:06.199, True, 0.996, 0.134203
2023/07/01 07:01:06.696, True, 1.346, 0.132830
2023/07/01 07:01:07.200, True, 0.995, 0.133516
2023/07/01 07:01:07.696, True, 1.012, 0.134966
2023/07/01 07:01:08.199, True, 1.326, 0.130617
2023/07/01 07:01:08.704, True, 0.995, 0.135424
2023/07/01 07:01:09.200, True, 1.010, 0.134966
2023/07/01 07:01:09.704, True, 1.327, 0.132982
2023/07/01 07:01:10.207, True, 1.327, 0.134279
2023/07/01 07:01:10.712, True, 0.994, 0.134432
2023/07/01 07:01:11.207, True, 1.012, 0.135805
2023/07/01 07:01:11.712, True, 1.327, 0.134356
2023/07/01 07:01:12.215, True, 0.995, 0.133135
2023/07/01 07:01:12.712, True, 1.346, 0.133974
2023/07/01 07:01:13.215, True, 0.995, 0.135805
2023/07/01 07:01:13.720, True, 0.995, 0.133974
2023/07/01 07:01:14.215, True, 1.349, 0.134279
2023/07/01 07:01:14.720, True, 0.993, 0.135653
2023/07/01 07:01:15.224, True, 0.995, 0.133898
2023/07/01 07:01:15.720, True, 1.349, 0.135119
2023/07/01 07:01:16.224, True, 0.994, 0.134279
2023/07/01 07:01:16.728, True, 0.995, 0.135424
2023/07/01 07:01:17.224, True, 1.348, 0.135271
2023/07/01 07:01:17.727, True, 0.994, 0.136110
2023/07/01 07:01:18.232, True, 1.327, 0.134966
2023/07/01 07:01:18.727, True, 1.012, 0.135882
2023/07/01 07:01:19.232, True, 0.995, 0.132830
2023/07/01 07:01:19.736, True, 1.325, 0.133516
2023/07/01 07:01:20.232, True, 1.011, 0.133974
2023/07/01 07:01:20.736, True, 1.328, 0.137865
2023/07/01 07:01:21.240, True, 0.995, 0.135500
2023/07/01 07:01:21.736, True, 1.010, 0.133516
2023/07/01 07:01:22.240, True, 1.328, 0.134585
2023/07/01 07:01:22.743, True, 0.995, 0.134813
2023/07/01 07:01:23.248, True, 1.325, 0.134966
2023/07/01 07:01:23.751, True, 0.996, 0.135576
2023/07/01 07:01:24.247, True, 1.348, 0.136263
2023/07/01 07:01:24.751, True, 0.995, 0.136873
2023/07/01 07:01:25.255, True, 0.995, 0.134432
2023/07/01 07:01:25.752, True, 1.010, 0.136492
2023/07/01 07:01:26.255, True, 1.327, 0.134966
2023/07/01 07:01:26.760, True, 0.995, 0.136416
2023/07/01 07:01:27.256, True, 1.011, 0.135271
2023/07/01 07:01:27.760, True, 1.326, 0.133898
2023/07/01 07:01:28.264, True, 0.995, 0.137407
2023/07/01 07:01:28.768, True, 0.993, 0.134661
2023/07/01 07:01:29.264, True, 1.348, 0.136645
2023/07/01 07:01:29.767, True, 0.996, 0.135195
2023/07/01 07:01:30.272, True, 0.995, 0.136187
2023/07/01 07:01:30.768, True, 1.348, 0.135576
2023/07/01 07:01:31.272, True, 0.994, 0.135424
2023/07/01 07:01:31.776, True, 1.326, 0.133669
2023/07/01 07:01:32.280, True, 0.995, 0.133364
2023/07/01 07:01:32.776, True, 1.011, 0.135500
2023/07/01 07:01:33.279, True, 1.326, 0.135882
2023/07/01 07:01:33.776, True, 1.012, 0.136950
2023/07/01 07:01:34.280, True, 1.326, 0.135195
2023/07/01 07:01:34.784, True, 0.996, 0.136263
2023/07/01 07:01:35.280, True, 1.348, 0.136797
2023/07/01 07:01:35.783, True, 0.995, 0.137713
2023/07/01 07:01:36.288, True, 1.324, 0.136721
2023/07/01 07:01:36.784, True, 1.011, 0.134737
2023/07/01 07:01:37.288, True, 0.995, 0.137026
2023/07/01 07:01:37.791, True, 1.326, 0.134508
2023/07/01 07:01:38.288, True, 1.011, 0.136339
2023/07/01 07:01:38.792, True, 0.995, 0.137255
2023/07/01 07:01:39.296, True, 1.327, 0.137865
2023/07/01 07:01:39.792, True, 1.011, 0.137484
2023/07/01 07:01:40.296, True, 0.995, 0.135958
2023/07/01 07:01:40.799, True, 1.325, 0.136263
2023/07/01 07:01:41.296, True, 1.011, 0.136263
2023/07/01 07:01:41.800, True, 1.327, 0.136721
2023/07/01 07:01:42.304, True, 0.995, 0.136950
2023/07/01 07:01:42.808, True, 1.328, 0.136034
2023/07/01 07:01:43.303, True, 1.348, 0.136950
2023/07/01 07:01:43.808, True, 0.994, 0.138094
2023/07/01 07:01:44.312, True, 0.996, 0.135271
2023/07/01 07:01:44.808, True, 1.348, 0.136034
2023/07/01 07:01:45.312, True, 0.994, 0.134890
2023/07/01 07:01:45.815, True, 0.996, 0.136797
2023/07/01 07:01:46.311, True, 1.347, 0.135500
2023/07/01 07:01:46.815, True, 0.996, 0.134813
2023/07/01 07:01:47.312, True, 1.010, 0.136568
2023/07/01 07:01:47.816, True, 1.326, 0.135271
2023/07/01 07:01:48.319, True, 0.996, 0.136034
2023/07/01 07:01:48.816, True, 1.346, 0.135729
2023/07/01 07:01:49.320, True, 0.995, 0.137484
2023/07/01 07:01:49.824, True, 1.326, 0.134813
2023/07/01 07:01:50.320, True, 1.011, 0.138170
2023/07/01 07:01:50.824, True, 1.328, 0.137407
2023/07/01 07:01:51.328, True, 0.993, 0.135195
2023/07/01 07:01:51.824, True, 1.349, 0.137713
2023/07/01 07:01:52.328, True, 0.994, 0.136110
2023/07/01 07:01:52.832, True, 1.328, 0.136492
2023/07/01 07:01:53.328, True, 1.009, 0.137636
2023/07/01 07:01:53.831, True, 1.327, 0.137407
2023/07/01 07:01:54.336, True, 0.996, 0.136645
2023/07/01 07:01:54.831, True, 1.348, 0.137179
2023/07/01 07:01:55.336, True, 0.994, 0.136721
2023/07/01 07:01:55.840, True, 1.326, 0.136416
2023/07/01 07:01:56.344, True, 0.994, 0.137713
2023/07/01 07:01:56.840, True, 1.349, 0.137255
2023/07/01 07:01:57.343, True, 0.994, 0.135805
2023/07/01 07:01:57.848, True, 1.328, 0.134508
2023/07/01 07:01:58.343, True, 1.011, 0.135958
2023/07/01 07:01:58.848, True, 1.325, 0.138094
2023/07/01 07:01:59.352, True, 0.995, 0.135500
2023/07/01 07:01:59.848, True, 1.011, 0.134127
2023/07/01 07:02:00.352, True, 1.326, 0.135653
2023/07/01 07:02:00.856, True, 0.995, 0.137484
2023/07/01 07:02:01.352, True, 1.349, 0.137713
2023/07/01 07:02:01.856, True, 0.993, 0.135500
2023/07/01 07:02:02.360, True, 0.995, 0.137026
2023/07/01 07:02:02.856, True, 1.347, 0.136416
2023/07/01 07:02:03.360, True, 0.995, 0.134203
2023/07/01 07:02:03.864, True, 0.996, 0.136416
2023/07/01 07:02:04.360, True, 1.346, 0.135805
2023/07/01 07:02:04.864, True, 0.995, 0.138094
2023/07/01 07:02:05.368, True, 0.995, 0.137102
2023/07/01 07:02:05.864, True, 1.350, 0.138323
2023/07/01 07:02:06.368, True, 1.326, 0.135195
2023/07/01 07:02:06.872, True, 0.994, 0.137179
2023/07/01 07:02:07.368, True, 1.349, 0.139925
2023/07/01 07:02:07.871, True, 0.994, 0.137255
2023/07/01 07:02:08.375, True, 1.326, 0.136034
2023/07/01 07:02:08.872, True, 1.010, 0.135653
2023/07/01 07:02:09.376, True, 1.326, 0.137026
2023/07/01 07:02:09.879, True, 0.995, 0.136950
2023/07/01 07:02:10.384, True, 0.994, 0.135805
2023/07/01 07:02:10.880, True, 1.348, 0.134813
2023/07/01 07:02:11.384, True, 0.995, 0.136950
2023/07/01 07:02:11.888, True, 0.996, 0.137407
2023/07/01 07:02:12.383, True, 1.009, 0.137026
2023/07/01 07:02:12.887, True, 1.328, 0.135500
2023/07/01 07:02:13.383, True, 1.011, 0.136645
2023/07/01 07:02:13.888, True, 0.993, 0.136645
2023/07/01 07:02:14.392, True, 0.995, 0.137026
2023/07/01 07:02:14.896, True, 1.329, 0.138781
2023/07/01 07:02:15.391, True, 1.010, 0.135653
2023/07/01 07:02:15.895, True, 0.995, 0.136034
2023/07/01 07:02:16.400, True, 1.325, 0.134737
2023/07/01 07:02:16.895, True, 1.010, 0.136110
2023/07/01 07:02:17.400, True, 1.327, 0.135271
2023/07/01 07:02:17.904, True, 0.995, 0.136416
2023/07/01 07:02:18.400, True, 1.349, 0.135882
2023/07/01 07:02:18.904, True, 0.995, 0.135195
2023/07/01 07:02:19.408, True, 1.325, 0.137560
2023/07/01 07:02:19.904, True, 1.012, 0.134966
2023/07/01 07:02:20.408, True, 0.993, 0.136187
2023/07/01 07:02:20.912, True, 1.326, 0.136034
2023/07/01 07:02:21.408, True, 1.012, 0.135424
2023/07/01 07:02:21.912, True, 0.996, 0.134203
2023/07/01 07:02:22.416, True, 1.324, 0.136187
2023/07/01 07:02:22.920, True, 0.996, 0.135729
2023/07/01 07:02:23.416, True, 1.348, 0.139162
2023/07/01 07:02:23.920, True, 0.996, 0.136797
2023/07/01 07:02:24.424, True, 1.326, 0.137865
2023/07/01 07:02:24.920, True, 1.009, 0.135805
2023/07/01 07:02:25.424, True, 0.995, 0.136645
2023/07/01 07:02:25.927, True, 1.326, 0.136263
2023/07/01 07:02:26.423, True, 1.011, 0.137179
2023/07/01 07:02:26.928, True, 0.997, 0.135500
2023/07/01 07:02:27.431, True, 1.325, 0.137026
2023/07/01 07:02:27.928, True, 1.010, 0.136721
2023/07/01 07:02:28.432, True, 0.995, 0.136263
2023/07/01 07:02:28.936, True, 0.995, 0.135882
2023/07/01 07:02:29.432, True, 1.348, 0.137331
2023/07/01 07:02:29.936, True, 0.995, 0.133898
2023/07/01 07:02:30.439, True, 0.995, 0.134279
2023/07/01 07:02:30.936, True, 1.349, 0.136110
2023/07/01 07:02:31.440, True, 0.993, 0.136873
2023/07/01 07:02:31.944, True, 0.995, 0.136873
2023/07/01 07:02:32.440, True, 1.348, 0.136416
2023/07/01 07:02:32.943, True, 0.996, 0.136339
2023/07/01 07:02:33.448, True, 1.325, 0.135500
2023/07/01 07:02:33.951, True, 0.995, 0.137255
2023/07/01 07:02:34.447, True, 1.011, 0.135271
2023/07/01 07:02:34.952, True, 1.327, 0.134432
2023/07/01 07:02:35.456, True, 0.993, 0.136950
2023/07/01 07:02:35.952, True, 1.348, 0.133822
2023/07/01 07:02:36.456, True, 0.996, 0.136797
2023/07/01 07:02:36.959, True, 0.995, 0.138094
2023/07/01 07:02:37.456, True, 1.009, 0.135042
2023/07/01 07:02:37.960, True, 1.327, 0.134279
2023/07/01 07:02:38.464, True, 0.996, 0.135729
2023/07/01 07:02:38.960, True, 1.010, 0.133364
2023/07/01 07:02:39.464, True, 1.327, 0.136110
2023/07/01 07:02:39.968, True, 0.995, 0.135576
2023/07/01 07:02:40.464, True, 1.347, 0.135424
2023/07/01 07:02:40.968, True, 0.995, 0.136034
2023/07/01 07:02:41.471, True, 1.329, 0.136110
2023/07/01 07:02:41.976, True, 0.994, 0.136492
2023/07/01 07:02:42.472, True, 1.010, 0.137636
2023/07/01 07:02:42.975, True, 1.327, 0.133211
2023/07/01 07:02:43.480, True, 0.996, 0.135424
2023/07/01 07:02:43.976, True, 1.010, 0.137179
2023/07/01 07:02:44.479, True, 0.994, 0.134737
2023/07/01 07:02:44.983, True, 0.995, 0.133974
2023/07/01 07:02:45.480, True, 1.349, 0.134737
2023/07/01 07:02:45.984, True, 0.993, 0.136416
2023/07/01 07:02:46.488, True, 0.996, 0.135882
2023/07/01 07:02:46.983, True, 1.012, 0.134127
2023/07/01 07:02:47.488, True, 0.993, 0.135271
2023/07/01 07:02:47.992, True, 1.328, 0.137407
2023/07/01 07:02:48.495, True, 0.994, 0.134356
2023/07/01 07:02:48.992, True, 1.010, 0.133898
2023/07/01 07:02:49.496, True, 0.996, 0.136721
2023/07/01 07:02:50.000, True, 0.993, 0.134432
2023/07/01 07:02:50.496, True, 1.011, 0.133974
2023/07/01 07:02:50.999, True, 1.329, 0.134508
2023/07/01 07:02:51.504, True, 0.993, 0.133440
2023/07/01 07:02:52.008, True, 1.328, 0.136645
2023/07/01 07:02:52.503, True, 1.011, 0.136339
2023/07/01 07:02:53.008, True, 1.326, 0.133364
2023/07/01 07:02:53.512, True, 0.993, 0.135958
2023/07/01 07:02:54.008, True, 1.011, 0.136873
2023/07/01 07:02:54.512, True, 1.328, 0.135958
2023/07/01 07:02:55.016, True, 0.995, 0.133135
2023/07/01 07:02:55.512, True, 1.010, 0.135653
2023/07/01 07:02:56.016, True, 1.326, 0.136950
2023/07/01 07:02:56.520, True, 0.995, 0.136187
2023/07/01 07:02:57.016, True, 1.011, 0.136187
2023/07/01 07:02:57.520, True, 1.329, 0.134279
2023/07/01 07:02:58.024, True, 0.994, 0.137789
2023/07/01 07:02:58.520, True, 1.011, 0.135271
2023/07/01 07:02:59.024, True, 0.995, 0.136339
2023/07/01 07:02:59.528, True, 1.325, 0.136492
2023/07/01 07:03:00.024, True, 1.011, 0.133440
2023/07/01 07:03:00.528, True, 1.327, 0.135882
2023/07/01 07:03:01.032, True, 0.994, 0.134051
2023/07/01 07:03:01.528, True, 1.011, 0.135500
2023/07/01 07:03:02.032, True, 0.995, 0.136187
2023/07/01 07:03:02.536, True, 1.326, 0.135271
2023/07/01 07:03:03.032, True, 1.011, 0.133135
2023/07/01 07:03:03.536, True, 1.327, 0.136034
2023/07/01 07:03:04.032, True, 1.011, 0.136034
2023/07/01 07:03:04.536, True, 0.995, 0.134356
2023/07/01 07:03:05.040, True, 0.995, 0.135653
2023/07/01 07:03:05.536, True, 1.348, 0.135576
2023/07/01 07:03:06.040, True, 0.995, 0.134966
2023/07/01 07:03:06.544, True, 0.995, 0.134585
2023/07/01 07:03:07.040, True, 1.348, 0.135271
2023/07/01 07:03:07.544, True, 0.995, 0.133898
2023/07/01 07:03:08.048, True, 0.994, 0.137331
2023/07/01 07:03:08.544, True, 1.011, 0.136110
2023/07/01 07:03:09.048, True, 1.326, 0.136797
2023/07/01 07:03:09.544, True, 1.011, 0.134966
2023/07/01 07:03:10.048, True, 0.995, 0.136187
2023/07/01 07:03:10.552, True, 1.326, 0.134356
2023/07/01 07:03:11.048, True, 1.011, 0.138247
2023/07/01 07:03:11.552, True, 0.995, 0.132677
2023/07/01 07:03:12.056, True, 1.326, 0.136187
2023/07/01 07:03:12.552, True, 1.011, 0.135348
2023/07/01 07:03:13.056, True, 0.996, 0.135271
2023/07/01 07:03:13.560, True, 0.994, 0.137942
2023/07/01 07:03:14.056, True, 1.348, 0.135653
2023/07/01 07:03:14.560, True, 0.996, 0.134127
2023/07/01 07:03:15.064, True, 0.994, 0.134432
2023/07/01 07:03:15.568, True, 1.327, 0.133974
2023/07/01 07:03:16.064, True, 1.010, 0.135500
2023/07/01 07:03:16.568, True, 0.995, 0.135576
2023/07/01 07:03:17.072, True, 0.995, 0.134203
2023/07/01 07:03:17.568, True, 1.348, 0.133135
2023/07/01 07:03:18.072, True, 0.995, 0.134508
2023/07/01 07:03:18.568, True, 1.011, 0.135119
2023/07/01 07:03:19.072, True, 1.327, 0.135500
2023/07/01 07:03:19.576, True, 0.994, 0.133745
2023/07/01 07:03:20.080, True, 0.995, 0.134966
2023/07/01 07:03:20.576, True, 1.348, 0.134279
2023/07/01 07:03:21.080, True, 0.995, 0.134051
2023/07/01 07:03:21.584, True, 0.995, 0.134127
2023/07/01 07:03:22.080, True, 1.347, 0.134127
2023/07/01 07:03:22.583, True, 0.994, 0.136873
2023/07/01 07:03:23.088, True, 0.995, 0.134966
2023/07/01 07:03:23.584, True, 1.348, 0.134813
2023/07/01 07:03:24.088, True, 1.328, 0.134813
2023/07/01 07:03:24.592, True, 0.995, 0.132830
2023/07/01 07:03:25.088, True, 1.010, 0.136034
2023/07/01 07:03:25.592, True, 0.996, 0.135653
2023/07/01 07:03:26.096, True, 1.327, 0.135271
2023/07/01 07:03:26.600, True, 0.993, 0.134508
2023/07/01 07:03:27.096, True, 1.350, 0.136721
2023/07/01 07:03:27.600, True, 0.995, 0.133974
2023/07/01 07:03:28.104, True, 1.325, 0.134051
2023/07/01 07:03:28.600, True, 1.011, 0.136492
2023/07/01 07:03:29.104, True, 1.325, 0.133135
2023/07/01 07:03:29.600, True, 1.011, 0.134356
2023/07/01 07:03:30.104, True, 0.995, 0.136568
2023/07/01 07:03:30.608, True, 1.327, 0.133593
2023/07/01 07:03:31.112, True, 0.996, 0.135653
2023/07/01 07:03:31.608, True, 1.010, 0.134432
2023/07/01 07:03:32.112, True, 1.326, 0.134279
2023/07/01 07:03:32.616, True, 0.995, 0.136492
2023/07/01 07:03:33.112, True, 1.011, 0.133135
2023/07/01 07:03:33.616, True, 1.326, 0.135424
2023/07/01 07:03:34.120, True, 0.996, 0.133974
2023/07/01 07:03:34.616, True, 1.346, 0.135271
2023/07/01 07:03:35.120, True, 0.996, 0.134051
2023/07/01 07:03:35.624, True, 1.325, 0.134356
2023/07/01 07:03:36.120, True, 1.011, 0.133898
2023/07/01 07:03:36.624, True, 1.325, 0.137865
2023/07/01 07:03:37.128, True, 0.995, 0.133593
2023/07/01 07:03:37.624, True, 1.347, 0.136110
2023/07/01 07:03:38.128, True, 0.997, 0.137179
2023/07/01 07:03:38.631, True, 1.325, 0.135500
2023/07/01 07:03:39.128, True, 1.010, 0.134813
2023/07/01 07:03:39.632, True, 0.995, 0.135805
2023/07/01 07:03:40.136, True, 1.326, 0.134737
2023/07/01 07:03:40.640, True, 0.996, 0.135805
2023/07/01 07:03:41.136, True, 1.347, 0.135042
2023/07/01 07:03:41.640, True, 0.994, 0.134203
2023/07/01 07:03:42.144, True, 1.325, 0.134966
2023/07/01 07:03:42.648, True, 0.995, 0.135958
2023/07/01 07:03:43.144, True, 1.011, 0.135805
2023/07/01 07:03:43.648, True, 1.326, 0.135729
2023/07/01 07:03:44.151, True, 0.997, 0.135195
2023/07/01 07:03:44.648, True, 1.346, 0.132906
2023/07/01 07:03:45.152, True, 0.995, 0.132448
2023/07/01 07:03:45.648, True, 1.011, 0.135805
2023/07/01 07:03:46.152, True, 1.327, 0.133745
2023/07/01 07:03:46.656, True, 0.994, 0.132830
2023/07/01 07:03:47.152, True, 1.348, 0.134890
2023/07/01 07:03:47.656, True, 1.328, 0.133288
2023/07/01 07:03:48.159, True, 0.995, 0.133745
2023/07/01 07:03:48.664, True, 1.326, 0.134966
2023/07/01 07:03:49.160, True, 1.010, 0.135119
2023/07/01 07:03:49.664, True, 0.997, 0.135729
2023/07/01 07:03:50.168, True, 1.325, 0.136187
2023/07/01 07:03:50.664, True, 1.012, 0.135195
2023/07/01 07:03:51.168, True, 1.326, 0.137179
2023/07/01 07:03:51.672, True, 0.995, 0.132677
2023/07/01 07:03:52.175, True, 1.327, 0.135500
2023/07/01 07:03:52.672, True, 1.010, 0.134585
2023/07/01 07:03:53.176, True, 1.325, 0.134051
2023/07/01 07:03:53.680, True, 1.327, 0.135195
2023/07/01 07:03:54.176, True, 1.010, 0.132830
2023/07/01 07:03:54.680, True, 1.329, 0.131304
2023/07/01 07:03:55.184, True, 0.994, 0.135958
2023/07/01 07:03:55.680, True, 1.010, 0.135348
2023/07/01 07:03:56.184, True, 1.327, 0.136721
2023/07/01 07:03:56.688, True, 0.996, 0.134203
2023/07/01 07:03:57.184, True, 1.346, 0.134051
2023/07/01 07:03:57.688, True, 0.996, 0.135653
2023/07/01 07:03:58.192, True, 1.326, 0.135576
2023/07/01 07:03:58.688, True, 1.011, 0.132906
2023/07/01 07:03:59.191, True, 0.995, 0.133974
2023/07/01 07:03:59.696, True, 1.327, 0.132982
2023/07/01 07:04:00.192, True, 1.009, 0.134127
2023/07/01 07:04:00.695, True, 1.326, 0.133898
2023/07/01 07:04:01.200, True, 0.995, 0.133288
2023/07/01 07:04:01.704, True, 1.327, 0.135119
2023/07/01 07:04:02.199, True, 1.010, 0.132677
2023/07/01 07:04:02.704, True, 1.327, 0.134966
2023/07/01 07:04:03.208, True, 0.995, 0.134356
2023/07/01 07:04:03.704, True, 1.349, 0.132906
2023/07/01 07:04:04.208, True, 0.995, 0.135042
2023/07/01 07:04:04.703, True, 1.010, 0.135119
2023/07/01 07:04:05.208, True, 1.326, 0.135119
2023/07/01 07:04:05.712, True, 1.327, 0.131838
2023/07/01 07:04:06.208, True, 1.011, 0.134051
2023/07/01 07:04:06.712, True, 1.326, 0.131533
2023/07/01 07:04:07.216, True, 0.994, 0.135195
2023/07/01 07:04:07.712, True, 1.348, 0.134737
2023/07/01 07:04:08.216, True, 0.995, 0.133593
2023/07/01 07:04:08.720, True, 1.326, 0.134661
2023/07/01 07:04:09.224, True, 0.995, 0.134661
2023/07/01 07:04:09.720, True, 1.348, 0.134432
2023/07/01 07:04:10.224, True, 0.994, 0.133135
2023/07/01 07:04:10.727, True, 1.329, 0.133669
2023/07/01 07:04:11.224, True, 1.009, 0.134890
2023/07/01 07:04:11.728, True, 0.995, 0.135119